Weather History for Athens, OH

Change the Weather History Date:

Friday, December 2, 2011

  Actual Average (KPKB) Record (KPKB)
Temperature  
Mean Temperature 34 °F 39 °F  
Max Temperature 47 °F 48 °F 75 °F (1982)
Min Temperature 22 °F 31 °F 7 °F (1976)
Degree Days  
Heating Degree Days 30 26  
Month to date heating degree days 52  
Since 1 July heating degree days 1037  
Cooling Degree Days 0 0  
Month to date cooling degree days 0  
Year to date cooling degree days 955  
Moisture  
Dew Point 28 °F    
Average Humidity 83    
Maximum Humidity 96    
Minimum Humidity 55    
Precipitation  
Precipitation 0.00 in 0.10 in 1.70 in (1991)
Month to date precipitation 0.21  
Year to date precipitation 38.30  
Sea Level Pressure  
Sea Level Pressure 30.40 in    
Wind  
Wind Speed 1 mph (WSW)    
Max Wind Speed 6 mph    
Max Gust Speed -    
Visibility 10 miles    
Events      
T = Trace of Precipitation, MM = Missing Value Source: NWS Daily Summary

Daily Weather History Graph

Daily Weather History Graph

Search for Another Location

Airport:

Trip Planner

Search our weather history database for the weather conditions in past years. The results will help you decide how hot, cold, wet, or windy it might be!

Date:

Astronomy

Dec. 02, 2011 Rise Set
Actual Time 7:30 AM EST 5:06 PM EST
Civil Twilight 7:00 AM EST 5:35 PM EST
Nautical Twilight 6:27 AM EST 6:09 PM EST
Astronomical Twilight 5:54 AM EST 6:41 PM EST
Moon 12:42 PM EST (12/2) 12:01 AM EST (12/2)
Length of Visible Light 10h 35m
Length of Day
9h 36m
First Quarter, 53% of the Moon is Illuminated
Dec 2
First Quarter
Dec 10
Full
Dec 17
Last Quarter
Dec 24
New
Jan 1
First Quarter

Hourly Weather History & Observations

Time (EST) Temp. Windchill Dew Point Humidity Pressure Visibility Wind Dir Wind Speed Gust Speed Precip Events Conditions
12:15 AM 24.8 °F - 23.7 °F 96% 30.31 in 10.0 mi Calm Calm - N/A   Clear
12:35 AM 26.6 °F - 25.5 °F 96% 30.31 in 10.0 mi Calm Calm - N/A   Clear
12:55 AM 24.8 °F - 23.5 °F 95% 30.31 in 10.0 mi Calm Calm - N/A   Clear
1:15 AM 24.8 °F - 23.0 °F 93% 30.31 in 10.0 mi Calm Calm - N/A   Clear
1:35 AM 25.2 °F - 23.9 °F 95% 30.31 in 10.0 mi Calm Calm - N/A   Clear
1:55 AM 24.4 °F - 22.8 °F 94% 30.31 in 10.0 mi Calm Calm - N/A   Clear
2:15 AM 24.3 °F - 22.8 °F 94% 30.31 in 10.0 mi Calm Calm - N/A   Clear
2:35 AM 24.6 °F - 23.0 °F 94% 30.31 in 10.0 mi Calm Calm - N/A   Clear
2:55 AM 24.3 °F - 22.6 °F 94% 30.31 in 10.0 mi Calm Calm - N/A   Clear
3:15 AM 23.9 °F - 22.3 °F 94% 30.31 in 10.0 mi Calm Calm - N/A   Clear
3:35 AM 23.4 °F - 21.9 °F 94% 30.31 in 10.0 mi Calm Calm - N/A   Clear
3:55 AM 23.5 °F - 22.1 °F 94% 30.31 in 10.0 mi Calm Calm - N/A   Clear
4:15 AM 23.7 °F - 22.1 °F 94% 30.31 in 10.0 mi Calm Calm - N/A   Clear
4:35 AM 23.9 °F - 22.5 °F 94% 30.31 in 10.0 mi Calm Calm - N/A   Clear
5:15 AM 23.9 °F - 22.3 °F 94% 30.33 in 10.0 mi Calm Calm - N/A   Clear
5:35 AM 23.5 °F - 22.1 °F 94% 30.34 in 10.0 mi Calm Calm - N/A   Clear
6:15 AM 23.4 °F - 21.9 °F 94% 30.34 in 10.0 mi Calm Calm - N/A   Clear
6:35 AM 23.4 °F - 21.9 °F 94% 30.35 in 10.0 mi Calm Calm - N/A   Clear
6:55 AM 23.0 °F - 21.2 °F 93% 30.35 in 10.0 mi Calm Calm - N/A   Clear
7:15 AM 22.8 °F - 21.2 °F 93% 30.36 in 10.0 mi Calm Calm - N/A   Clear
7:35 AM 23.0 °F - 21.2 °F 93% 30.36 in 10.0 mi Calm Calm - N/A   Clear
7:55 AM 23.0 °F - 21.6 °F 94% 30.37 in 10.0 mi Calm Calm - N/A   Clear
8:15 AM 24.1 °F - 22.6 °F 94% 30.37 in 10.0 mi Calm Calm - N/A   Clear
8:35 AM 25.3 °F - 23.7 °F 94% 30.38 in 10.0 mi Calm Calm - N/A   Clear
8:55 AM 27.7 °F - 26.1 °F 94% 30.38 in 10.0 mi Calm Calm - N/A   Clear
9:15 AM 30.4 °F - 28.6 °F 93% 30.39 in 10.0 mi Calm Calm - N/A   Clear
9:35 AM 34.3 °F - 31.3 °F 89% 30.38 in 10.0 mi Calm Calm - N/A   Clear
9:55 AM 34.3 °F 31.4 °F 30.9 °F 87% 30.39 in 10.0 mi SW 3.5 mph - N/A   Clear
10:15 AM 37.6 °F 34.0 °F 32.2 °F 81% 30.40 in 10.0 mi WSW 4.6 mph - N/A   Clear
10:35 AM 40.1 °F 36.9 °F 32.7 °F 75% 30.41 in 10.0 mi SW 4.6 mph - N/A   Clear
10:55 AM 41.7 °F 38.0 °F 32.9 °F 71% 30.41 in 10.0 mi WSW 5.8 mph - N/A   Clear
11:15 AM 42.6 °F 39.0 °F 32.5 °F 68% 30.41 in 10.0 mi SW 5.8 mph - N/A   Clear
11:35 AM 43.0 °F - 32.4 °F 66% 30.41 in 10.0 mi Calm Calm - N/A   Mostly Cloudy
11:55 AM 43.7 °F 40.3 °F 32.7 °F 65% 30.42 in 10.0 mi SW 5.8 mph - N/A   Mostly Cloudy
12:15 PM 43.7 °F 41.1 °F 32.0 °F 63% 30.42 in 10.0 mi West 4.6 mph - N/A   Mostly Cloudy
12:35 PM 43.7 °F 42.1 °F 32.0 °F 63% 30.42 in 10.0 mi West 3.5 mph - N/A   Mostly Cloudy
12:55 PM 44.1 °F 42.5 °F 32.4 °F 63% 30.42 in 10.0 mi West 3.5 mph - N/A   Overcast
1:15 PM 43.9 °F 42.3 °F 32.0 °F 63% 30.42 in 10.0 mi WNW 3.5 mph - N/A   Overcast
1:35 PM 44.6 °F 42.2 °F 32.4 °F 62% 30.42 in 10.0 mi WSW 4.6 mph - N/A   Scattered Clouds
1:55 PM 45.1 °F - 32.0 °F 60% 30.42 in 10.0 mi Calm Calm - N/A   Clear
2:15 PM 45.7 °F - 32.4 °F 60% 30.42 in 10.0 mi Calm Calm - N/A   Clear
2:35 PM 46.4 °F - 32.2 °F 58% 30.42 in 10.0 mi Calm Calm - N/A   Clear
2:55 PM 47.1 °F - 32.7 °F 57% 30.42 in 10.0 mi Calm Calm - N/A   Clear
3:15 PM 47.3 °F - 32.0 °F 55% 30.43 in 10.0 mi NNW 3.5 mph - N/A   Clear
3:35 PM 46.9 °F - 32.0 °F 56% 30.43 in 10.0 mi Calm Calm - N/A   Clear
4:15 PM 45.9 °F - 32.0 °F 58% 30.44 in 10.0 mi Calm Calm - N/A   Clear
4:35 PM 45.5 °F - 31.8 °F 59% 30.45 in 10.0 mi Calm Calm - N/A   Clear
4:55 PM 41.5 °F - 32.0 °F 69% 30.45 in 10.0 mi Calm Calm - N/A   Clear
5:15 PM 39.9 °F - 32.0 °F 73% 30.46 in 10.0 mi Calm Calm - N/A   Clear
5:35 PM 37.9 °F - 31.5 °F 77% 30.47 in 10.0 mi Calm Calm - N/A   Clear
5:55 PM 35.8 °F - 30.9 °F 82% 30.48 in 10.0 mi Calm Calm - N/A   Clear
6:15 PM 34.7 °F - 30.7 °F 85% 30.48 in 10.0 mi Calm Calm - N/A   Clear
6:35 PM 33.6 °F - 30.2 °F 87% 30.48 in 10.0 mi Calm Calm - N/A   Clear
6:55 PM 32.2 °F - 29.7 °F 90% 30.49 in 10.0 mi Calm Calm - N/A   Clear
7:15 PM 32.4 °F - 29.8 °F 90% 30.49 in 10.0 mi Calm Calm - N/A   Clear
7:35 PM 32.0 °F - 29.8 °F 92% 30.49 in 10.0 mi Calm Calm - N/A   Clear
7:55 PM 31.3 °F - 28.8 °F 90% 30.49 in 10.0 mi Calm Calm - N/A   Clear
8:15 PM 31.5 °F - 29.3 °F 92% 30.49 in 10.0 mi Calm Calm - N/A   Clear
8:35 PM 30.4 °F - 28.2 °F 92% 30.50 in 10.0 mi Calm Calm - N/A   Clear
8:55 PM 30.2 °F - 28.2 °F 92% 30.50 in 10.0 mi Calm Calm - N/A   Clear
9:15 PM 29.8 °F - 28.0 °F 93% 30.50 in 10.0 mi Calm Calm - N/A   Clear
9:35 PM 29.1 °F - 27.0 °F 92% 30.51 in 10.0 mi Calm Calm - N/A   Clear
9:55 PM 28.8 °F - 27.1 °F 94% 30.52 in 10.0 mi Calm Calm - N/A   Clear
10:15 PM 28.9 °F - 27.0 °F 92% 30.52 in 10.0 mi Calm Calm - N/A   Clear
10:35 PM 28.4 °F - 26.4 °F 92% 30.52 in 10.0 mi Calm Calm - N/A   Clear
10:55 PM 28.2 °F - 26.6 °F 94% 30.52 in 10.0 mi Calm Calm - N/A   Clear
11:15 PM 27.5 °F - 26.1 °F 94% 30.52 in 10.0 mi Calm Calm - N/A   Clear
11:35 PM 27.9 °F - 25.7 °F 92% 30.52 in 10.0 mi Calm Calm - N/A   Clear
11:55 PM 27.5 °F - 25.7 °F 93% 30.52 in 10.0 mi Calm Calm - N/A   Clear